#timestamp,LO_Frequency,Hit,StdDev 
1520917215.1,286047000.2,N
1520917235.8,286047001.1,N
1520917255.7,286046998.5,N
1520917275.5,286047000.4,N
1520917295.4,286046999.9,N
1520917315.2,286047001.9,N
1520917335.0,286047001.6,N
1520917335.9,286047001.6,N
1520917355.8,286047003.5,N
1520917375.6,286047003.9,N
1520917395.4,286047001.5,N
1520917415.3,286047001.3,N
1520917435.1,286047006.0,Y
1520917455.9,286047003.4,P
1520917475.7,286047004.9,P
1520917495.5,286047005.6,P
1520917515.4,286047003.0,N
1520917535.2,286047006.4,Y
1520917555.0,286047003.4,P
1520917556.0,286047003.4,P
1520917575.8,286047001.7,P
1520917595.6,286047002.2,N
1520917615.5,286047002.0,N
1520917635.3,286047005.5,Y
1520917655.1,286047000.1,P
1520917675.9,286047000.1,N
1520917695.7,286047000.4,N
1520917715.6,286047000.1,N
1520917735.4,286047000.4,N
1520917755.2,286046998.9,N
1520917775.1,286047001.2,N
1520917776.0,286047001.2,N
1520917795.8,286047000.1,N
1520917815.7,286047000.0,N
1520917835.5,286047002.8,Y
1520917855.3,286046998.7,P
1520917875.2,286046998.6,N
1520917895.0,286046998.5,N
1520917895.9,286046998.5,N
1520917915.8,286046998.7,N
1520917935.6,286046998.4,N
1520917955.4,286047000.5,N
1520917975.3,286047000.6,N
1520917995.1,286047000.2,N
1520918015.8,286047000.3,N
1520918035.7,286047000.0,N
1520918055.5,286047000.3,N
1520918075.4,286047000.4,N
1520918095.2,286047000.2,N
1520918115.0,286047001.0,N
1520918115.9,286047001.0,N
1520918135.8,286047002.8,N
1520918155.6,286047000.6,N
1520918175.5,286047000.0,N
1520918195.3,286047002.4,N
1520918215.1,286047002.5,N
1520918235.9,286047002.5,N
1520918255.7,286047001.9,N
1520918275.6,286047002.2,N
1520918295.4,286047002.3,N
1520918315.2,286047002.2,N
1520918335.1,286047002.4,N
1520918336.0,286047002.4,N
1520918355.8,286047002.7,N
1520918375.7,286047000.2,N
1520918395.5,286047002.7,N
1520918415.3,286047001.6,N
1520918435.2,286047003.9,N
1520918455.0,286047002.5,N
1520918455.9,286047002.5,N
1520918475.7,286047002.6,N
1520918495.6,286047001.7,N
1520918515.4,286047003.7,Y
1520918535.3,286047000.0,P
1520918555.1,286047000.1,N
1520918575.8,286047000.6,N
1520918595.7,286047000.4,N
1520918615.5,286046999.7,N
1520918635.4,286047002.2,Y
1520918655.2,286047002.4,P
1520918675.0,286047002.5,N
1520918675.9,286047002.5,N
1520918695.8,286046999.7,N
1520918715.6,286047001.0,N
1520918735.5,286047001.1,N
1520918755.3,286046998.4,N
1520918775.1,286046998.9,N
1520918795.9,286046999.4,N
1520918815.7,286046997.1,N
1520918835.6,286046998.8,N
1520918855.4,286047000.8,N
1520918875.2,286047000.6,N
1520918895.1,286047000.7,N
1520918896.0,286047000.7,N
1520918915.8,286047001.0,N
1520918935.6,286046999.7,N
1520918955.5,286047002.5,N
1520918975.3,286047000.0,N
1520918995.2,286046999.8,N
1520919015.9,286047002.2,N
1520919035.7,286047002.6,N
1520919055.6,286047002.2,N
1520919075.4,286047004.1,N
1520919095.2,286047004.4,N
1520919115.1,286047004.0,N
1520919116.0,286047004.0,N
1520919135.8,286047001.8,N
1520919155.7,286047004.2,N
1520919175.5,286047001.6,N
1520919195.3,286047004.0,N
1520919215.2,286047001.3,N
1520919235.0,286047002.1,N
1520919235.9,286047002.1,N
1520919255.8,286046999.7,N
1520919275.6,286046999.7,N
1520919295.4,286047000.0,N
1520919315.3,286046998.2,N
1520919335.1,286046998.3,N
1520919355.8,286047000.4,N
1520919375.7,286046999.8,N
1520919395.5,286047002.4,N
1520919415.4,286047000.2,N
1520919435.2,286047000.7,N
1520919455.0,286047001.2,N
1520919455.9,286047001.2,N
1520919475.8,286047000.3,N
1520919495.6,286047001.0,N
1520919515.5,286047000.8,N
1520919535.3,286047001.1,N
1520919555.1,286047000.6,N
1520919575.9,286047000.2,N
1520919595.7,286046999.8,N
1520919615.5,286047001.5,N
1520919635.4,286047001.6,N
1520919655.2,286047003.8,N
1520919675.1,286047003.8,N
1520919676.0,286047003.8,N
1520919695.8,286047003.9,N
1520919715.6,286047004.3,N
1520919735.5,286047003.2,N
1520919755.3,286047003.4,N
1520919775.1,286047003.9,N
1520919795.9,286047004.3,N
1520919815.7,286047004.4,N
1520919835.6,286047004.0,N
1520919855.4,286047001.5,N
1520919875.2,286047001.9,N
1520919895.1,286047001.3,N
1520919896.0,286047001.3,N
1520919915.8,286047001.8,N
1520919935.7,286047002.0,N
1520919955.5,286047001.6,N
1520919975.3,286047001.5,N
1520919995.2,286047002.1,N
1520920015.0,286047002.0,N
1520920015.9,286047002.0,N
1520920035.8,286047000.3,N
1520920055.6,286047000.2,N
1520920075.4,286047000.0,N
1520920095.3,286047000.6,N
1520920115.1,286047000.4,N
1520920135.8,286047000.9,N
1520920155.7,286047001.2,N
1520920175.5,286047002.8,N
1520920195.4,286047003.9,N
1520920215.2,286047003.7,N
1520920235.0,286047003.8,N
1520920235.9,286047003.8,N
1520920255.8,286047003.6,N
1520920275.6,286047004.0,N
1520920295.5,286047001.9,N
1520920315.3,286047004.0,N
1520920335.1,286047002.6,N
1520920355.9,286047002.5,N
1520920375.7,286047002.5,N
1520920395.5,286047002.2,N
1520920415.4,286047002.0,N
1520920435.2,286047003.5,N
1520920455.1,286047001.5,N
1520920456.0,286047001.5,N
1520920475.8,286047002.2,N
1520920495.6,286047001.9,N
1520920515.5,286047001.6,N
1520920535.3,286047002.2,N
1520920555.2,286047001.6,N
1520920575.9,286047002.0,N
1520920595.7,286047002.3,N
1520920615.6,286047002.4,N
1520920635.4,286047000.2,N
1520920655.2,286046999.9,N
1520920675.1,286047000.5,N
1520920676.0,286047000.5,N
1520920695.8,286047002.7,N
1520920715.7,286047004.0,Y
1520920735.5,286046999.9,P
1520920755.3,286047001.9,N
1520920775.2,286047002.6,N
1520920795.0,286047004.3,Y
1520920795.9,286047004.3,P
